Location: Camp Creek
(33.9000°N, 111.8167°W)
Time: 04:06:51
(UTC-07:00)

DELTA 2 R/B (1) - Visible Passes

Search period start: 30 May 2017 00:00
Search period end: 09 June 2017 00:00
Orbit: 791 x 802 km, 39.6° (Epoch: 29 May)

Date Brightness Start Highest point End Pass type
(mag) Time Alt. Az. Time Alt. Az. Time Alt. Az.
30 May 4.0 01:56:33 58° NNW 01:56:33 58° NNW 02:02:00 10° ENE visible
30 May 4.5 03:38:09 10° WNW 03:43:31 47° N 03:48:52 10° ENE visible
31 May 4.4 01:26:53 48° NE 01:26:53 48° NE 01:31:10 10° ENE visible
31 May 4.5 03:07:38 12° WNW 03:12:38 47° N 03:18:00 10° ENE visible
01 Jun 4.9 00:57:14 33° NE 00:57:14 33° NE 01:00:20 10° ENE visible
01 Jun 4.5 02:37:59 19° WNW 02:41:46 47° N 02:47:07 10° ENE visible
01 Jun 3.8 04:23:04 10° WNW 04:28:39 75° NNE 04:34:12 10° ESE visible
02 Jun 5.5 00:27:36 22° ENE 00:27:36 22° ENE 00:29:30 10° ENE visible
02 Jun 4.5 02:08:20 28° NW 02:10:54 46° N 02:16:15 10° ENE visible
02 Jun 3.8 03:52:15 10° WNW 03:57:48 71° NNE 04:03:21 10° ESE visible
02 Jun 5.9 23:57:58 14° ENE 23:57:58 14° ENE 23:58:40 10° ENE visible
03 Jun 4.4 01:38:43 39° NW 01:40:01 46° N 01:45:23 10° ENE visible
03 Jun 3.9 03:21:24 10° WNW 03:26:58 68° NNE 03:32:30 10° E visible
03 Jun 4.5 21:30:53 10° SSW 21:34:13 30° S 21:34:13 30° S visible
03 Jun6.323:28:26ENE23:28:26ENE23:15:15WSWvisible
04 Jun 4.4 01:09:11 47° N 01:09:11 47° N 01:14:31 10° ENE visible
04 Jun 3.9 02:50:34 10° WNW 02:56:07 65° NNE 03:01:38 10° E visible
04 Jun 3.9 04:37:11 10° WNW 04:42:30 46° SSW 04:47:46 10° SE visible
04 Jun 4.1 21:00:11 10° SSW 21:05:11 34° SE 21:08:46 17° E visible
04 Jun 4.2 22:45:48 10° WSW 22:59:06 - ENE 22:49:48 48° W visible
05 Jun 4.8 00:39:53 37° NE 00:39:53 37° NE 00:43:39 10° ENE visible
05 Jun 4.0 02:20:40 15° WNW 02:25:15 62° NNE 02:30:47 10° E visible
05 Jun 3.7 04:06:19 10° WNW 04:11:41 50° SSW 04:17:02 10° SE visible
05 Jun 4.3 20:29:31 10° SSW 20:34:24 31° SE 20:39:17 10° E visible
05 Jun 3.5 22:14:57 10° WSW 22:20:33 82° NNW 22:24:02 24° ENE visible
06 Jun 5.1 00:02:00 10° WNW 00:11:20 18° ENE 00:12:47 10° ENE visible
06 Jun 4.0 01:52:13 35° NW 01:54:24 59° NNE 01:59:54 10° E visible
06 Jun 3.6 03:35:27 10° WNW 03:40:52 54° SSW 03:46:17 10° SE visible
06 Jun 4.4 19:58:52 10° SSW 20:03:36 28° SE 20:08:20 10° E visible
06 Jun 3.5 21:44:06 10° WSW 21:49:43 86° NNW 21:55:20 10° ENE visible
06 Jun 4.4 23:31:07 10° W 23:36:32 48° N 23:37:28 44° NNE visible
07 Jun 4.7 01:18:02 10° WNW 01:25:35 36° ENE 01:29:02 10° E visible
07 Jun 3.5 03:06:37 22° WNW 03:10:04 59° SSW 03:15:31 10° SE visible
07 Jun 3.5 21:13:15 10° WSW 21:18:53 89° SSE 21:24:30 10° ENE visible
07 Jun 4.4 23:00:14 10° W 23:05:39 49° N 23:08:31 26° NE visible
08 Jun 5.4 00:47:11 10° WNW 01:00:04 - E 00:49:17 23° WNW visible
08 Jun 4.2 02:41:07 40° SE 02:41:07 40° SE 02:44:45 10° SE visible
08 Jun 5.0 04:22:10 11° WSW 04:25:05 16° SW 04:28:21 10° S visible
08 Jun 3.5 20:42:26 10° WSW 20:48:03 84° SSE 20:53:40 10° ENE visible
08 Jun 4.4 22:29:20 10° W 22:34:47 50° N 22:39:06 16° ENE visible
